Lid_Strength_Index
4 3 3 3 3 3 2 2 3 2 2 3 2 2 3 3 3 5 7 3 7 9 8 5 5 7 7 7 9 7 8 8 9 12 12 12 13 11 12 11 13 14 15 15 15 17 18 6 8 12 10 8 8 9
3 3 2 2 2 3 3 2 2 3 3 2 2 2 3 3 2 4 6 2 4 8 8 5 5 5 5 5 7 6 8 8 8 11 10 11 12 11 12 16 9 14 11 14 12 13 8 7 8 6 6 8 8 9
3 3 2 1 1 2 2 2 2 3 3 2 2 2 3 3 3 3 6 4 4 7 7 7 6 5 4 5 2 7 6 5 7 5 8 9 12 10 14 13 11 8 8 11 11 9 8 7 6 6 6 8 7 8
3 3 2 2 1 1 1 1 1 1 2 2 2 2 3 3 3 3 6 4 4 6 8 6 2 3 2 3 3 4 4 4 4 6 9 10 11 8 11 10 11 9 9 10 10 8 7 6 6 6 7 6 9 10
3 3 2 2 1 1 1 1 1 1 1 2 2 1 3 4 3 3 4 4 3 6 8 7 3 2 2 3 4 4 4 5 7 9 9 10 8 9 9 9 10 8 10 12 12 8 8 8 7 7 8 10 10 11
3 3 3 2 1 1 0 0 0 1 1 1 2 1 2 4 3 5 5 2 2 3 7 9 3 3 3 3 4 4 4 5 6 7 8 7 5 8 11 12 8 6 6 6 8 6 6 6 6 7 9 10 10 9
2 2 2 2 2 1 0 0 0 0 0 0 1 1 3 3 5 6 6 4 3 3 6 8 7 4 3 3 5 5 4 5 6 7 8 8 8 8 10 13 8 6 5 5 5 5 7 6 8 9 10 10 9 9
2 2 2 2 2 2 1 1 0 0 0 1 0 1 3 3 4 7 4 3 4 4 5 9 8 6 3 6 7 4 6 5 6 8 7 9 7 8 11 8 6 5 5 5 5 5 6 6 8 10 10 9 10 10
2 2 2 2 2 2 1 1 0 0 0 0 1 2 3 6 7 5 1 2 3 6 8 8 9 11 4 6 5 6 5 9 6 9 9 8 10 12 8 7 6 6 6 6 6 6 7 8 10 10 11 10 10 10
1 2 2 2 2 2 1 0 0 0 0 1 3 5 8 6 2 2 5 7 8 8 7 8 6 9 6 6 7 7 7 9 11 9 7 9 10 7 5 5 5 5 5 6 8 9 8 10 11 11 10 9 9 9
1 1 1 2 2 1 1 0 0 0 3 4 7 7 4 1 4 6 8 9 9 10 8 8 8 8 4 8 8 6 9 8 11 10 10 11 12 8 5 5 4 5 5 6 7 7 8 10 11 10 9 8 8 8
1 1 1 2 2 1 1 0 0 3 4 4 4 3 3 5 8 10 10 8 8 10 7 8 7 7 5 4 7 7 9 8 12 7 10 13 9 6 5 5 5 5 6 7 7 7 8 9 9 9 9 9 8 8
1 1 2 2 2 1 1 0 0 2 2 2 5 7 8 8 11 12 13 11 10 7 6 6 7 7 5 5 7 8 10 11 7 11 12 10 7 6 5 5 5 5 6 6 7 7 8 9 9 9 8 7 7 8
2 2 2 2 2 1 1 0 1 2 4 7 8 10 10 12 10 9 8 8 6 6 6 6 6 7 6 8 8 9 8 8 12 14 12 9 7 6 5 4 5 6 6 7 7 7 8 9 9 8 8 7 8 8
2 2 2 2 2 1 1 0 1 2 5 8 7 11 10 7 7 6 6 5 5 4 5 6 6 6 8 8 8 8 10 13 12 13 10 7 6 5 5 4 5 6 6 6 6 7 8 8 9 9 8 7 8 8
2 2 3 1 1 1 1 1 3 4 5 6 6 8 6 7 8 6 6 6 4 5 5 5 7 9 9 9 10 10 11 13 11 9 6 5 5 5 5 5 5 5 6 6 7 7 8 10 10 10 8 8 8 9
2 4 1 1 1 1 1 4 5 7 7 7 7 5 6 6 7 7 6 6 4 6 8 7 10 10 7 10 10 8 10 9 7 6 5 5 5 5 4 5 5 5 5 5 5 7 9 9 9 10 10 9 9 9
4 2 1 1 2 3 4 4 6 6 8 7 7 6 5 5 6 5 5 5 5 6 7 9 7 9 10 11 10 8 7 6 5 5 5 4 4 4 4 5 5 5 5 5 6 7 8 9 10 10 9 9 9 9
2 2 1 1 2 4 7 6 4 7 7 5 5 4 5 4 4 3 4 4 4 4 6 7 9 10 9 7 7 6 6 5 6 5 4 4 3 3 4 4 5 5 5 5 6 7 8 9 10 9 9 9 10 10
2 1 1 1 1 4 6 7 3 6 7 5 4 5 5 5 4 4 4 4 5 5 7 9 9 7 7 6 5 5 5 4 4 5 5 4 3 3 4 5 6 5 5 5 6 10 8 8 9 8 7 8 9 9
2 2 1 1 3 3 5 6 6 5 5 6 5 5 5 5 6 5 6 4 6 7 8 6 5 4 4 3 3 3 4 3 4 4 5 5 3 3 4 4 5 5 6 6 7 9 9 8 8 7 7 8 8 8
4 2 3 2 4 5 5 4 5 4 5 5 5 5 6 7 7 6 5 7 7 6 6 5 4 4 4 4 3 3 3 3 3 4 4 4 4 4 4 5 5 5 6 6 7 8 8 8 8 7 8 9 8 8
2 2 3 4 7 7 8 4 7 6 8 7 6 7 7 7 6 4 7 7 7 5 5 5 4 3 3 3 2 3 2 3 4 3 3 3 3 3 4 5 5 5 6 5 6 7 8 10 9 8 8 8 8 8
1 4 6 7 7 9 6 8 6 7 7 7 8 9 8 7 5 7 9 7 6 5 5 5 4 5 4 4 5 3 3 2 3 3 2 3 3 3 3 4 4 4 4 4 6 7 7 7 9 8 7 7 7 7
8 8 8 11 7 8 9 9 9 9 10 8 9 9 8 6 9 9 9 7 6 5 5 5 5 5 6 5 4 4 2 2 3 4 2 2 3 3 3 4 4 4 3 5 6 6 7 7 7 7 7 7 7 7
12 8 9 9 9 9 9 10 10 9 9 9 9 7 7 8 10 10 8 7 6 5 4 5 6 6 6 5 5 4 3 1 2 3 3 2 2 3 4 5 5 4 3 4 5 6 6 7 7 7 7 8 11 7
12 9 7 6 7 7 8 7 7 8 9 9 8 8 9 11 11 8 5 4 4 3 2 3 4 5 5 4 3 2 1 1 2 2 1 1 1 1 2 4 5 4 3 4 5 5 6 6 7 7 7 6 6 6
8 7 9 8 8 7 9 8 9 9 8 6 7 9 10 10 9 5 4 2 2 2 2 2 2 2 2 2 2 2 2 1 1 1 1 1 1 1 1 2 2 7 3 4 4 4 5 5 6 6 7 6 6 6
8 7 7 8 7 7 7 8 8 6 5 6 8 8 7 5 3 3 3 2 1 2 3 3 2 1 1 1 1 2 2 2 3 4 5 5 4 3 2 2 3 3 3 5 10 9 6 7 5 6 6 6 6 6
9 7 8 8 9 9 7 5 6 4 4 4 4 4 4 4 3 1 2 2 3 3 2 2 2 2 3 3 4 3 2 1 2 3 4 4 3 1 2 2 3 3 4 4 5 5 11 9 10 6 6 6 6 6
7 7 8 8 8 7 6 5 4 4 4 4 4 5 5 4 3 2 2 2 2 2 2 3 2 2 3 3 3 4 4 2 1 1 1 1 2 2 2 2 3 4 4 5 5 5 6 6 6 6 6 6 7 6
8 8 9 10 9 6 5 5 6 6 6 6 6 5 5 6 7 4 2 2 2 3 4 3 3 2 1 1 1 2 7 2 1 1 1 2 2 2 2 3 3 4 4 4 5 5 5 6 6 6 6 5 5 4
7 7 7 8 8 8 6 7 7 7 6 7 6 5 6 6 8 4 1 1 2 2 2 2 1 1 1 1 1 2 3 1 2 6 6 6 5 4 3 4 3 4 4 5 4 5 5 5 5 5 5 5 5 5